Flag for Germany Past Weather in Neumarkt in der Oberpfalz, Bavaria, Germany — Yesterday and Last 2 Weeks

Now
12 °F

Light snow. Ice fog.


Feels Like: 12 °F
Forecast: 14 / 27 °F
Wind: No wind

Location: Hohenfels

Current Time: Jan 24, 2017 at 10:34:52 am

Latest Report: Jan 24, 2017 at 10:04 am


Visibility: 1 mi

Pressure: 30.29 "Hg

Humidity: 85%

Dew Point: 9 °F

Location of Neumarkt in der OberpfalzLocation

Past Weather in Neumarkt in der Oberpfalz — Graph

°F

Neumarkt in der Oberpfalz Temperature Yesterday

Maximum temperature yesterday: 23 °F (at 3:58 pm)
Minimum temperature yesterday: 0 °F (at 7:58 am)
Average temperature yesterday: 10 °F

High & Low Weather Summary for the Past Weeks

 TemperatureHumidityPressure
High39 °F (Jan 12, 2:58 pm)100% (Jan 11, 6:03 pm)30.71 "Hg (Jan 11, 6:03 pm)
Low0 °F (Jan 23, 7:58 am)39% (Jan 20, 2:58 pm)29.32 "Hg (Jan 13, 3:28 am)
Average24 °F83%30.15 "Hg
* Reported Jan 9 9:58 am — Jan 24 9:21 am, Neumarkt in der Oberpfalz, Weather by CustomWeather, © 2017

Note: Actual official high and low records may vary slightly from our data, if they occured in-between our weather recording intervals... More about our weather records

Advertising

Neumarkt in der Oberpfalz Weather History for the Previous 24 Hours

Scroll right to see more
 ConditionsComfort  
Time TempWeatherWind HumidityBarometerVisibility
9:21 am
Tue, Jan 24
10 °FIce fog.No wind92%30.28 "Hg2 mi
8:58 am11 °FIce fog.No wind88%30.44 "Hg1 mi
8:41 am10 °FIce fog.No wind85%30.27 "Hg1 mi
8:33 am10 °FIce fog.No wind85%30.27 "Hg1 mi
8:09 am10 °FIce fog.No wind85%30.27 "Hg1 mi
8:01 am10 °FIce fog.No wind85%30.26 "Hg1 mi
7:58 am10 °FIce fog.No wind85%30.42 "Hg1 mi
7:34 am9 °FIce fog.No wind92%30.26 "Hg1 mi
7:21 am9 °FIce fog.No wind92%30.25 "Hg1 mi
6:58 am9 °FIce fog.No wind92%30.41 "Hg1 mi
6:29 am9 °FIce fog.No wind92%30.24 "Hg1 mi
6:19 am9 °FIce fog.No wind85%30.24 "Hg1 mi
6:07 am9 °FIce fog.No wind85%30.23 "Hg2 mi
5:58 am9 °FIce fog.No wind85%30.39 "Hg2 mi
4:58 am7 °FIce fog.No wind84%30.37 "Hg4 mi
3:58 am5 °FIce fog.No wind78%30.35 "Hg5 mi
3:31 am3 °FIce fog.No wind85%30.21 "Hg5 mi
2:58 am3 °FIce fog.No wind84%30.36 "Hg5 mi
2:06 am1 °FIce fog.No wind85%30.22 "Hg5 mi
1:58 am1 °FIce fog.No wind85%30.37 "Hg5 mi
12:58 am3 °FIce fog.No wind85%30.38 "Hg5 mi
11:58 pm
Mon, Jan 23
4 °FIce fog.No wind85%30.37 "Hg5 mi
10:58 pm4 °FIce fog.No wind85%30.37 "Hg5 mi
9:58 pm6 °FIce fog.No wind87%30.37 "Hg5 mi
8:58 pm7 °FIce fog.No wind92%30.38 "Hg5 mi
7:58 pm9 °FIce fog.No wind92%30.39 "Hg4 mi
6:58 pm11 °FIce fog.3 mph89%30.37 "Hg4 mi
5:58 pm12 °FIce fog.5 mph92%30.36 "Hg4 mi
5:15 pm16 °FIce fog.No wind86%30.19 "Hg3 mi
4:58 pm18 °FIce fog.No wind86%30.35 "Hg2 mi
3:58 pm23 °FSunny.No wind74%30.33 "Hg4 mi
2:58 pm22 °FSunny.No wind78%30.32 "Hg4 mi
1:58 pm21 °FSunny.No wind80%30.33 "Hg4 mi
12:58 pm18 °FIce fog.3 mph91%30.36 "Hg3 mi
12:16 pm16 °FIce fog.No wind93%30.22 "Hg3 mi
11:58 am14 °FIce fog.No wind92%30.38 "Hg2 mi
11:35 am14 °FIce fog.No wind92%30.22 "Hg1 mi
11:12 am12 °FIce fog.No wind92%30.23 "Hg1 mi
11:06 am12 °FIce fog.No wind92%30.23 "Hg0 mi
10:43 am12 °FCold.No wind85%30.23 "HgN/A
10:36 am12 °FIce fog.No wind85%30.23 "Hg1 mi
10:02 am9 °FIce fog.No wind85%30.23 "Hg2 mi
Weather by CustomWeather, © 2017

See weather overviewHow to use our weather pages